Вернуться в каталог

BREEZE-M DEB

АктивенHEO
NORAD 38640·DEBRIS·🇷🇺 Russia

Запущен Mar 14, 2008 с Baikonur Cosmodrome

Loading…

Ближайшие Пролёты (ближайшие 24 часа)

TLE

СвежийSource: Space-Track

Эпоха: Sep 8, 2026, 05:53 UTC

1 38640U 08011CP  26251.24544818  .00000237  00000-0  14136-1 0  9991
2 38640  48.7654   2.5012 6378163 258.5835  67.0217  3.01786916170032

Отслеживайте BREEZE-M DEB в реальном времени с AllMySat

Download on the App Store